Regional Weather Roundup
Issued by NWS

Home | Current Version | Previous Version | Graphics & Text | Print | Product List | Glossary On
Versions: 1 2 3 4 5 6 7 8 9 10 11 12 13 14 15 16 17 18 19 20 21 22 23 24 25 26 27 28 29 30 31 32 33 34 35 36 37 38 39 40 41 42 43 44 45 46 47 48 49 50
253
ASUS45 KBOU 120407
RWRCO

WEATHER ROUNDUP FOR COLORADO
NATIONAL WEATHER SERVICE DENVER/BOULDER CO
900 PM MST THU FEB 11 2016

NOTE: "FAIR" INDICATES FEW OR NO CLOUDS BELOW 12000 FEET WITH NO
SIGNIFICANT WEATHER AND/OR OBSTRUCTIONS TO VISIBILITY.

COZ001>005-013-030-031-120500-
...NORTHWEST COLORADO...

CITY           SKY/WX    TMP DP  RH WIND       PRES   REMARKS
CRAIG          CLOUDY    16  12  84 W3        30.40S
HAYDEN         CLOUDY    25  14  63 E7        30.39S WCI  17
MEEKER         CLOUDY    21  15  78 NE3       30.39S
MOUNT WERNER   NOT AVBL
STEAMBOAT SPGS CLOUDY    22  16  77 CALM      30.40R
WALDEN         CLOUDY    28  14  54 SE6       30.40R WCI  22
$$

COZ006>008-011-120500-
...WEST CENTRAL VALLEYS...

CITY           SKY/WX    TMP DP  RH WIND       PRES   REMARKS
GRAND JUNCTION CLOUDY    26  25  96 NE3       30.40S
MONTROSE       CLOUDY    30  23  75 S7        30.43R WCI  23
EAGLE          CLEAR     27  19  74 E6        30.42S WCI  20
RIFLE          CLOUDY    28  18  66 CALM      30.41R
DELTA          CLOUDY    34  28  78 CALM      30.42R
NUCLA          CLOUDY    34  27  75 E9        30.43S WCI  26
$$

COZ017>023-064>068-120500-
...SOUTHWEST COLORADO...

CITY           SKY/WX    TMP DP  RH WIND       PRES   REMARKS
DURANGO        CLOUDY    29  21  72 VRB5      30.38R WCI  24
CORTEZ         CLOUDY    30  24  78 E10       30.38S WCI  21
PAGOSA SPRINGS CLOUDY    28  19  68 CALM      30.41S
TELLURIDE      CLOUDY    33  12  40 SE6       30.48R WCI  28
WOLF CREEK PAS CLOUDY    32   3  29 NW3       30.56S
$$

COZ009-010-012-014-032>034-037-058>063-120500-
...CENTRAL COLORADO...

CITY           SKY/WX    TMP DP  RH WIND       PRES   REMARKS
ASPEN          CLOUDY    27  15  61 SW10      30.42S WCI  17
BUENA VISTA    CLOUDY    35  20  54 N7        30.38S WCI  29
COPPER MTN     CLOUDY    30  10  43 W16       30.49F WCI  19
BERTHOUD PASS  FAIR      19  10  68 NW37G49   30.41S WCI  -1
COTTONWOOD PAS CLOUDY    37  12  35 W9        30.43S
GUNNISON       CLOUDY     3  -2  78 CALM      30.50R
KREMMLING      CLOUDY    10   5  79 CALM      30.45R
LEADVILLE      CLOUDY    26  11  52 NE5       30.43S WCI  20
MONARCH PASS   CLOUDY    28  12  50 NW16      30.61S WCI  17
SALIDA         NOT AVBL
SUNLIGHT       CLOUDY    32  14  47 CALM        N/A
WILKERSON PASS CLOUDY    32  14  47 NW12G22   30.48S WCI  23
$$

COZ069>075-120500-
...SAN LUIS VALLEY/SANGRE DE CRISTO MOUNTAINS...

CITY           SKY/WX    TMP DP  RH WIND       PRES   REMARKS
ALAMOSA        CLOUDY    27  22  81 NW3       30.39R
LA VETA PASS   CLOUDY    32  12  43 MISG      30.43R
SAGUACHE       CLOUDY    36  14  41 N14       30.41R
$$

COZ035-036-038>040-120500-
...NORTHERN COLORADO FRONT RANGE...

CITY           SKY/WX    TMP DP  RH WIND       PRES   REMARKS
DENVER INTL AP CLOUDY    38  26  62 S14       30.26R
DMNS CITY PARK   N/A     46  25  44 SE7G13    30.26S
AURORA         PTCLDY    38  25  59 S10       30.28R
FRONT RANGE AP MOCLDY    37  27  65 SE12      30.28R
ERIE MUNI ARPT CLOUDY    44  25  47 CALM      30.25R
BOULDER MUN AP CLOUDY    43  28  56 N3        30.24S
CENTENNIAL     CLOUDY    40  26  57 S13       30.27S
BROOMFIELD     PTCLDY    45  25  45 SE5       30.26F
FORT COLLINS   CLOUDY    37  25  60 S8        30.26R
LONGMONT       CLOUDY    38  29  70 CALM      30.27S
$$

COZ041-046-047-076>085-087-088-120500-
...PIKES PEAK/PALMER DIVIDE AND SOUTHERN FOOTHILLS...

CITY           SKY/WX    TMP DP  RH WIND       PRES   REMARKS
COLO. SPRINGS  PTCLDY    39  24  55 NE5       30.31R
A. F. ACADEMY  CLOUDY    37  23  58 N7        30.30R
SCHRIEVER AFB  FAIR      37  25  62 N9        30.30R
ELLICOTT       CLEAR    N/A N/A N/A E12       30.28R
FALCON         CLEAR     37  22  56 N12       30.32R
FORT CARSON    CLOUDY    40  25  54 N3        30.28R
LIMON          CLOUDY    29  24  82 NW7       30.27R WCI  22
MONUMENT HILL  CLOUDY    32  21  64 S6        30.33R WCI  26
TRINIDAD       CLOUDY    45  17  32 NE14      30.27R
$$

COZ042>045-048>051-090-091-120500-
...NORTHEAST COLORADO...

CITY           SKY/WX    TMP DP  RH WIND       PRES   REMARKS
GREELEY ARPT   CLOUDY    39  28  65 SW8       30.25R
AKRON          CLOUDY    35  26  69 N9        30.24R WCI  28
BURLINGTON     CLOUDY    34  27  75 NW10      30.23S WCI  26
WRAY           NOT AVBL
STERLING       CLOUDY    34  30  86 N5        30.22R WCI  30
HOLYOKE        CLOUDY    45  30  57 NW10G16   30.22R
FORT MORGAN    CLOUDY    37  26  64 S5        30.26R
$$

COZ086-089-092>099-120500-
...SOUTHEAST COLORADO...

CITY           SKY/WX    TMP DP  RH WIND       PRES   REMARKS
PUEBLO         CLEAR     47  26  44 W3        30.29R
LA JUNTA       CLEAR     45  29  53 E3        30.25R
LAMAR          CLOUDY    45  26  47 NE8       30.21R
SPRINGFIELD      N/A     34  21  59 N5        30.22R WCI  30
$$




USA.gov is the U.S. government's official web portal to all federal, state and local government web resources and services.